{"data":{"norad_id":68019,"intl_designator":"2026-040E","name":"STARLINK-36921","alt_names":[],"object_type":"PAYLOAD","status":"ACTIVE","operator":null,"country":"US","launch_date":"2026-03-01","launch_site_code":"AFWTR","launch_vehicle":null,"mission":null,"orbit_class":"UNKNOWN","rcs_meters":null,"size_class":null,"mass_kg":null,"dimensions":null,"purposes":["comms"],"wikipedia_slug":null,"has_3d_model":false,"image_url":null,"decayed_at":null,"tle_current":{"epoch":"2026-09-19T13:54:38.799072Z","epoch_age_seconds":139144,"freshness":"FRESH","line1":"1 68019U 26040E   26262.57961573  .00017162  00000+0  53282-3 0  9996","line2":"2 68019  97.2850 209.8843 0001879  90.6760 269.4698 15.33438260 31175","mean_motion":15.3343826,"eccentricity":0.0001879,"inclination_deg":97.285,"raan_deg":209.8843,"arg_perigee_deg":90.676,"mean_anomaly_deg":269.4698,"bstar":0.00053282,"rev_number":3117,"period_min":93.906617407603,"perigee_km":464.27729677674,"apogee_km":466.84915932244,"semimajor_km":6843.7002280496,"source":"CELESTRAK","updated_at":"2026-09-20T09:00:43.742041Z"}}}